| time (UTC) | temp F | wind direction | speed MPH | gust MPH | rain 1hr in | rain 24hr in | rain mn in | humidity % | barometer mb |
| 20260903111507 | 63 | 280 | 4.0 | 9.0 | 0.00 | 0.00 | 0.00 | 56 | 1004.9 |
| 20260903110004 | 63 | 290 | 4.0 | 8.0 | 0.00 | 0.00 | 0.00 | 64 | 1005.1 |
| 20260903104506 | 62 | 294 | 3.0 | 9.0 | 0.00 | 0.00 | 0.00 | 62 | 1005.1 |
| 20260903103002 | 62 | 268 | 3.0 | 8.0 | 0.00 | 0.00 | 0.00 | 63 | 1005.3 |
| 20260903101501 | 61 | 266 | 5.0 | 8.0 | 0.00 | 0.00 | 0.00 | 65 | 1005.4 |
| 20260903094602 | 61 | 276 | 4.0 | 8.0 | 0.00 | 0.00 | 0.00 | 64 | 1005.5 |
| 20260903093126 | 60 | 297 | 4.0 | 10.0 | 0.00 | 0.00 | 0.00 | 65 | 1005.6 |
| 20260903091558 | 60 | 203 | 3.0 | 10.0 | 0.00 | 0.00 | 0.00 | 64 | 1005.6 |
| 20260903090058 | 59 | 210 | 2.0 | 11.0 | 0.00 | 0.00 | 0.00 | 65 | 1005.5 |
| 20260903084557 | 59 | 194 | 4.0 | 9.0 | 0.00 | 0.00 | 0.00 | 65 | 1005.6 |
| 20260903083059 | 59 | 224 | 2.0 | 12.0 | 0.00 | 0.00 | 0.00 | 66 | 1005.7 |
| 20260903081556 | 58 | 233 | 2.0 | 11.0 | 0.00 | 0.00 | 0.00 | 67 | 1005.6 |
| 20260903080054 | 58 | 235 | 2.0 | 11.0 | 0.00 | 0.00 | 0.00 | 68 | 1005.6 |
| 20260903074554 | 58 | 255 | 4.0 | 8.0 | 0.00 | 0.00 | 0.00 | 68 | 1005.7 |
| 20260903073054 | 58 | 254 | 2.0 | 9.0 | 0.00 | 0.00 | 0.00 | 69 | 1005.7 |
| 20260903071621 | 57 | 205 | 1.0 | 10.0 | 0.00 | 0.00 | 0.00 | 71 | 1005.6 |
| 20260903064557 | 56 | 240 | 2.0 | 11.0 | 0.00 | 0.00 | 0.00 | 75 | 1005.8 |
| 20260903063102 | 56 | 172 | 4.0 | 11.0 | 0.00 | 0.00 | 0.00 | 75 | 1005.7 |
| 20260903061552 | 55 | 246 | 4.0 | 9.0 | 0.00 | 0.00 | 0.00 | 76 | 1005.8 |
| 20260903060052 | 55 | 229 | 2.0 | 12.0 | 0.00 | 0.00 | 0.00 | 79 | 1005.8 |
| 20260903054551 | 54 | 207 | 2.0 | 8.0 | 0.00 | 0.00 | 0.00 | 82 | 1005.7 |
| 20260903053050 | 54 | 183 | 2.0 | 9.0 | 0.00 | 0.00 | 0.00 | 85 | 1005.7 |
| 20260903051550 | 53 | 170 | 3.0 | 9.0 | 0.00 | 0.00 | 0.00 | 89 | 1005.6 |
| 20260903044555 | 0 | 0.0 | 0.0 | 0.00 | 0.00 | 0.00 | 1005.6 | ||
| 20260903043040 | 0 | 0.0 | 0.0 | 0.00 | 0.00 | 0.00 | 1005.5 | ||
| 20260903041536 | 0 | 0.0 | 0.0 | 0.00 | 0.00 | 0.00 | 1005.6 | ||
| 20260903040032 | 51 | 155 | 1.0 | 3.0 | 0.00 | 0.00 | 0.00 | 92 | 1005.7 |
| 20260903034530 | 51 | 197 | 1.0 | 3.0 | 0.00 | 0.00 | 0.00 | 92 | 1005.8 |
| 20260903033033 | 51 | 203 | 0.0 | 4.0 | 0.00 | 0.00 | 0.00 | 91 | 1005.8 |
| 20260903031531 | 52 | 169 | 1.0 | 4.0 | 0.00 | 0.00 | 0.00 | 91 | 1005.8 |
| 20260903030031 | 52 | 199 | 0.0 | 2.0 | 0.00 | 0.00 | 0.00 | 91 | 1005.8 |
| 20260903024529 | 52 | 195 | 0.0 | 3.0 | 0.00 | 0.00 | 0.00 | 90 | 1005.8 |
| 20260903023034 | 52 | 206 | 0.0 | 2.0 | 0.00 | 0.00 | 0.00 | 89 | 1005.9 |
| 20260903021520 | 52 | 170 | 0.0 | 5.0 | 0.00 | 0.00 | 0.00 | 89 | 1006.1 |
| 20260903020018 | 53 | 191 | 1.0 | 4.0 | 0.00 | 0.00 | 0.00 | 88 | 1006.0 |
| 20260903014521 | 53 | 190 | 1.0 | 4.0 | 0.00 | 0.00 | 0.00 | 87 | 1006.2 |
| 20260903013019 | 53 | 200 | 2.0 | 3.0 | 0.00 | 0.00 | 0.00 | 87 | 1006.1 |
| 20260903011522 | 53 | 177 | 1.0 | 4.0 | 0.00 | 0.00 | 0.00 | 87 | 1006.1 |
| 20260903010017 | 54 | 169 | 1.0 | 4.0 | 0.00 | 0.00 | 0.00 | 86 | 1006.2 |
| 20260903004517 | 54 | 191 | 2.0 | 6.0 | 0.00 | 0.00 | 0.00 | 85 | 1006.3 |
| 20260903003009 | 54 | 203 | 1.0 | 4.0 | 0.00 | 0.00 | 0.00 | 84 | 1006.3 |
| 20260903001513 | 54 | 180 | 0.0 | 3.0 | 0.00 | 0.00 | 0.00 | 83 | 1006.4 |
| 20260903000004 | 55 | 149 | 1.0 | 4.0 | 0.00 | 0.00 | 0.00 | 83 | 1006.5 |
| 20260902234501 | 56 | 162 | 1.0 | 5.0 | 0.00 | 0.00 | 0.00 | 82 | 1006.6 |
| 20260902231558 | 57 | 167 | 2.0 | 13.0 | 0.00 | 0.00 | 0.00 | 80 | 1006.5 |
| 20260902230107 | 57 | 195 | 4.0 | 12.0 | 0.00 | 0.00 | 0.00 | 79 | 1006.6 |
| 20260902224609 | 57 | 149 | 3.0 | 9.0 | 0.00 | 0.00 | 0.00 | 79 | 1006.7 |
| 20260902221601 | 57 | 167 | 2.0 | 8.0 | 0.00 | 0.00 | 0.00 | 78 | 1006.7 |
| 20260902220051 | 57 | 165 | 1.0 | 5.0 | 0.00 | 0.00 | 0.00 | 78 | 1006.7 |
| 20260902214615 | 58 | 190 | 1.0 | 9.0 | 0.00 | 0.00 | 0.00 | 78 | 1006.8 |
| 20260902211545 | 58 | 142 | 2.0 | 9.0 | 0.00 | 0.00 | 0.00 | 76 | 1006.8 |
| 20260902210046 | 59 | 193 | 2.0 | 6.0 | 0.00 | 0.00 | 0.00 | 75 | 1006.8 |
| 20260902204541 | 59 | 199 | 3.0 | 8.0 | 0.00 | 0.00 | 0.00 | 74 | 1006.8 |
| 20260902201547 | 59 | 259 | 3.0 | 9.0 | 0.00 | 0.00 | 0.00 | 71 | 1006.9 |
| 20260902200036 | 59 | 197 | 2.0 | 6.0 | 0.00 | 0.00 | 0.00 | 70 | 1006.9 |
| 20260902194540 | 59 | 197 | 1.0 | 5.0 | 0.00 | 0.00 | 0.00 | 69 | 1006.9 |
| 20260902191534 | 60 | 203 | 1.0 | 6.0 | 0.00 | 0.00 | 0.00 | 67 | 1006.9 |
| 20260902190032 | 60 | 218 | 2.0 | 7.0 | 0.00 | 0.00 | 0.00 | 66 | 1006.7 |
| 20260902184529 | 60 | 217 | 2.0 | 6.0 | 0.00 | 0.00 | 0.00 | 64 | 1006.8 |
| 20260902181526 | 62 | 203 | 1.0 | 7.0 | 0.00 | 0.00 | 0.00 | 63 | 1006.8 |
| 20260902180024 | 62 | 149 | 2.0 | 10.0 | 0.00 | 0.00 | 0.00 | 60 | 1006.8 |
| 20260902174525 | 62 | 217 | 3.0 | 8.0 | 0.00 | 0.00 | 0.00 | 59 | 1006.7 |
| 20260902171519 | 64 | 193 | 2.0 | 13.0 | 0.00 | 0.00 | 0.00 | 58 | 1006.7 |
| 20260902170017 | 65 | 203 | 2.0 | 9.0 | 0.00 | 0.00 | 0.00 | 57 | 1006.7 |
| 20260902164522 | 66 | 191 | 4.0 | 16.0 | 0.00 | 0.00 | 0.00 | 56 | 1006.6 |
| 20260902161521 | 66 | 235 | 2.0 | 8.0 | 0.00 | 0.00 | 0.00 | 55 | 1006.6 |
| 20260902160009 | 66 | 195 | 4.0 | 8.0 | 0.00 | 0.00 | 0.00 | 54 | 1006.5 |
| 20260902154514 | 66 | 195 | 5.0 | 13.0 | 0.00 | 0.00 | 0.00 | 53 | 1006.5 |
| 20260902151506 | 67 | 205 | 4.0 | 15.0 | 0.00 | 0.00 | 0.00 | 50 | 1006.6 |
| 20260902150014 | 67 | 214 | 6.0 | 14.0 | 0.00 | 0.00 | 0.00 | 49 | 1006.5 |
| 20260902144506 | 69 | 291 | 2.0 | 14.0 | 0.00 | 0.00 | 0.00 | 48 | 1006.7 |
| 20260902141602 | 69 | 294 | 3.0 | 15.0 | 0.00 | 0.00 | 0.00 | 51 | 1006.5 |
| 20260902140107 | 69 | 228 | 4.0 | 10.0 | 0.00 | 0.00 | 0.00 | 54 | 1006.5 |
| 20260902134559 | 69 | 221 | 2.0 | 8.0 | 0.00 | 0.00 | 0.00 | 56 | 1006.4 |
| 20260902131600 | 69 | 239 | 2.0 | 9.0 | 0.00 | 0.00 | 0.00 | 57 | 1006.4 |
| 20260902130057 | 70 | 253 | 3.0 | 11.0 | 0.00 | 0.00 | 0.00 | 56 | 1006.4 |
| 20260902124553 | 69 | 248 | 3.0 | 10.0 | 0.00 | 0.00 | 0.00 | 60 | 1006.5 |
| 20260902121558 | 68 | 162 | 3.0 | 13.0 | 0.00 | 0.00 | 0.00 | 64 | 1006.6 |
| 20260902120044 | 68 | 128 | 2.0 | 12.0 | 0.00 | 0.00 | 0.00 | 65 | 1006.7 |
| 20260902114549 | 67 | 247 | 4.0 | 9.0 | 0.00 | 0.00 | 0.00 | 67 | 1007.0 |